TimeCDT,TemperatureF,Dew PointF,Humidity,Sea Level PressureIn,VisibilityMPH,Wind Direction,Wind SpeedMPH,Gust SpeedMPH,PrecipitationIn,Events,Conditions,WindDirDegrees,DateUTC
12:15 AM,58.1,42.8,57,30.18,10.0,SSE,6.9,-,N/A,,Clear,150,2014-04-20 05:15:00
12:35 AM,58.3,42.8,56,30.18,10.0,SE,6.9,-,N/A,,Clear,140,2014-04-20 05:35:00
12:55 AM,58.1,42.8,57,30.18,10.0,SE,5.8,-,N/A,,Clear,140,2014-04-20 05:55:00
1:15 AM,56.7,42.3,59,30.18,10.0,SSE,4.6,-,N/A,,Clear,150,2014-04-20 06:15:00
1:35 AM,57.4,42.8,58,30.18,10.0,SSE,4.6,-,N/A,,Clear,160,2014-04-20 06:35:00
1:55 AM,56.7,42.8,60,30.18,10.0,SSE,6.9,-,N/A,,Clear,150,2014-04-20 06:55:00
2:15 AM,56.5,42.8,60,30.18,10.0,SSE,5.8,-,N/A,,Clear,160,2014-04-20 07:15:00
2:35 AM,56.8,42.8,59,30.18,10.0,SSE,5.8,-,N/A,,Clear,160,2014-04-20 07:35:00
2:55 AM,56.7,42.8,60,30.18,10.0,SSE,5.8,-,N/A,,Clear,160,2014-04-20 07:55:00
3:15 AM,56.3,42.8,61,30.18,10.0,SSE,4.6,-,N/A,,Clear,150,2014-04-20 08:15:00
3:35 AM,56.1,42.4,60,30.18,10.0,SSE,5.8,-,N/A,,Clear,160,2014-04-20 08:35:00
3:55 AM,56.1,42.1,59,30.18,10.0,SSE,5.8,-,N/A,,Clear,160,2014-04-20 08:55:00
4:15 AM,55.9,42.1,60,30.18,10.0,SSE,5.8,-,N/A,,Clear,160,2014-04-20 09:15:00
4:35 AM,55.4,41.9,60,30.19,10.0,South,5.8,-,N/A,,Clear,170,2014-04-20 09:35:00
4:55 AM,56.8,41.0,55,30.18,10.0,South,4.6,-,N/A,,Clear,170,2014-04-20 09:55:00
5:15 AM,56.3,41.0,57,30.18,10.0,South,3.5,-,N/A,,Clear,170,2014-04-20 10:15:00
5:35 AM,55.4,41.0,58,30.18,10.0,SSE,4.6,-,N/A,,Clear,160,2014-04-20 10:35:00
5:55 AM,53.6,41.0,62,30.18,10.0,South,3.5,-,N/A,,Clear,170,2014-04-20 10:55:00
6:15 AM,52.9,40.8,64,30.18,10.0,SSE,3.5,-,N/A,,Clear,160,2014-04-20 11:15:00
6:35 AM,55.4,40.5,57,30.18,10.0,SSE,4.6,-,N/A,,Clear,150,2014-04-20 11:35:00
6:55 AM,55.4,40.3,57,30.18,10.0,SE,4.6,-,N/A,,Clear,130,2014-04-20 11:55:00
7:15 AM,54.5,41.0,60,30.18,10.0,SE,4.6,-,N/A,,Clear,130,2014-04-20 12:15:00
7:35 AM,55.8,42.4,61,30.18,10.0,SE,5.8,-,N/A,,Clear,140,2014-04-20 12:35:00
7:55 AM,58.8,42.8,55,30.18,10.0,SSE,6.9,-,N/A,,Clear,150,2014-04-20 12:55:00
8:15 AM,61.5,42.8,50,30.18,10.0,South,8.1,-,N/A,,Clear,170,2014-04-20 13:15:00
8:35 AM,64.4,42.6,45,30.18,10.0,South,9.2,-,N/A,,Clear,170,2014-04-20 13:35:00
8:55 AM,65.7,43.0,44,30.18,10.0,South,8.1,-,N/A,,Clear,190,2014-04-20 13:55:00
9:15 AM,69.1,43.9,40,30.18,10.0,South,11.5,-,N/A,,Clear,190,2014-04-20 14:15:00
9:35 AM,70.2,41.7,36,30.18,10.0,SSW,13.8,18.4,N/A,,Clear,200,2014-04-20 14:35:00
9:55 AM,70.5,42.4,36,30.18,10.0,SSW,11.5,18.4,N/A,,Clear,200,2014-04-20 14:55:00
10:15 AM,71.8,42.4,35,30.18,10.0,SSW,11.5,18.4,N/A,,Clear,200,2014-04-20 15:15:00
10:35 AM,72.5,43.2,35,30.18,10.0,SSW,13.8,18.4,N/A,,Clear,200,2014-04-20 15:35:00
10:55 AM,73.6,43.9,34,30.17,10.0,SSW,10.4,17.3,N/A,,Clear,210,2014-04-20 15:55:00
11:15 AM,74.7,44.2,34,30.16,10.0,SSW,17.3,-,N/A,,Clear,200,2014-04-20 16:15:00
11:35 AM,75.0,44.8,34,30.16,10.0,SW,12.7,-,N/A,,Clear,220,2014-04-20 16:35:00
11:55 AM,76.1,45.7,34,30.16,10.0,SSW,9.2,-,N/A,,Clear,210,2014-04-20 16:55:00
12:15 PM,76.1,45.5,34,30.15,10.0,SW,11.5,17.3,N/A,,Clear,230,2014-04-20 17:15:00
12:35 PM,77.2,45.7,33,30.15,10.0,SW,11.5,18.4,N/A,,Clear,230,2014-04-20 17:35:00
12:55 PM,77.9,45.3,31,30.14,10.0,SSW,9.2,-,N/A,,Clear,210,2014-04-20 17:55:00
1:15 PM,78.1,45.3,31,30.13,10.0,SW,6.9,10.4,N/A,,Clear,230,2014-04-20 18:15:00
1:35 PM,78.6,44.6,30,30.12,10.0,South,9.2,16.1,N/A,,Clear,170,2014-04-20 18:35:00
1:55 PM,79.7,44.8,29,30.12,10.0,South,12.7,17.3,N/A,,Clear,180,2014-04-20 18:55:00
2:15 PM,79.5,44.2,29,30.11,10.0,South,11.5,18.4,N/A,,Clear,170,2014-04-20 19:15:00
2:35 PM,80.2,44.2,28,30.10,10.0,SW,11.5,17.3,N/A,,Clear,230,2014-04-20 19:35:00
2:55 PM,80.2,44.4,28,30.09,10.0,SSW,11.5,17.3,N/A,,Clear,210,2014-04-20 19:55:00
3:15 PM,80.2,43.2,27,30.08,10.0,WSW,5.8,10.4,N/A,,Clear,240,2014-04-20 20:15:00
3:35 PM,80.8,42.3,25,30.08,10.0,South,12.7,-,N/A,,Clear,170,2014-04-20 20:35:00
3:55 PM,80.4,41.0,25,30.07,10.0,SSW,12.7,18.4,N/A,,Clear,200,2014-04-20 20:55:00
4:15 PM,80.2,41.7,25,30.07,10.0,South,10.4,-,N/A,,Clear,190,2014-04-20 21:15:00
4:35 PM,80.8,41.5,25,30.06,10.0,South,12.7,17.3,N/A,,Clear,170,2014-04-20 21:35:00
4:55 PM,80.6,41.4,25,30.06,10.0,SE,10.4,-,N/A,,Clear,140,2014-04-20 21:55:00
5:15 PM,80.6,40.5,24,30.06,10.0,South,12.7,-,N/A,,Clear,180,2014-04-20 22:15:00
5:35 PM,79.7,40.6,25,30.06,10.0,South,8.1,-,N/A,,Clear,170,2014-04-20 22:35:00
5:55 PM,79.3,40.5,25,30.05,10.0,South,6.9,-,N/A,,Clear,180,2014-04-20 22:55:00
6:15 PM,79.7,41.0,25,30.05,10.0,SSE,8.1,-,N/A,,Clear,160,2014-04-20 23:15:00
6:35 PM,79.7,41.7,26,30.04,10.0,SSE,6.9,-,N/A,,Clear,160,2014-04-20 23:35:00
6:55 PM,78.8,41.9,27,30.04,10.0,SSE,6.9,-,N/A,,Clear,160,2014-04-20 23:55:00
7:15 PM,77.2,41.7,28,30.04,10.0,SSE,5.8,-,N/A,,Clear,160,2014-04-21 00:15:00
7:35 PM,74.5,41.7,31,30.03,10.0,SE,5.8,-,N/A,,Clear,140,2014-04-21 00:35:00
7:55 PM,73.4,41.0,31,30.03,10.0,SE,5.8,-,N/A,,Clear,140,2014-04-21 00:55:00
8:15 PM,72.3,41.0,32,30.03,10.0,SE,5.8,-,N/A,,Clear,130,2014-04-21 01:15:00
8:35 PM,70.5,41.0,34,30.04,10.0,ESE,9.2,-,N/A,,Clear,120,2014-04-21 01:35:00
8:55 PM,70.3,41.0,34,30.04,10.0,SE,8.1,-,N/A,,Clear,130,2014-04-21 01:55:00
9:15 PM,68.9,42.1,38,30.04,10.0,SE,8.1,-,N/A,,Clear,130,2014-04-21 02:15:00
9:35 PM,68.2,43.2,40,30.04,10.0,SE,9.2,-,N/A,,Clear,130,2014-04-21 02:35:00
9:55 PM,68.0,43.7,41,30.04,10.0,SE,6.9,-,N/A,,Clear,140,2014-04-21 02:55:00
10:15 PM,66.6,44.1,44,30.04,10.0,SE,5.8,-,N/A,,Clear,140,2014-04-21 03:15:00
10:35 PM,66.2,44.2,45,30.04,10.0,SSE,6.9,-,N/A,,Clear,150,2014-04-21 03:35:00
10:55 PM,66.0,44.6,46,30.03,10.0,SSE,6.9,-,N/A,,Clear,160,2014-04-21 03:55:00
11:15 PM,66.0,44.6,46,30.03,10.0,SSE,4.6,-,N/A,,Clear,160,2014-04-21 04:15:00
11:35 PM,66.2,44.8,46,30.03,10.0,SSE,4.6,-,N/A,,Clear,160,2014-04-21 04:35:00
11:55 PM,65.7,45.0,47,30.03,10.0,SSE,4.6,-,N/A,,Clear,150,2014-04-21 04:55:00